Home   Weather   Deltona   Past weeks
Flag for USA

Past Weather in Deltona, Florida, USA — Yesterday and Last 2 Weeks

Now
76 °F

Sunny.


Feels Like: 76 °F
Forecast: 90 / 74 °F
Wind: No wind

Location: Orlando / Sanford Airport

Current Time: Jul 22, 2019 at 8:48:30 am

Latest Report: Jul 22, 2019 at 7:53 am


Visibility: 10 mi

Pressure: 30.04 "Hg

Humidity: 91%

Dew Point: 73 °F

Location of DeltonaLocation

Past Weather in Deltona — Graph

°F

Deltona Temperature Yesterday

Maximum temperature yesterday: 92 °F (at 1:37 pm)
Minimum temperature yesterday: 74 °F (at 11:53 pm)
Average temperature yesterday: 80 °F

High & Low Weather Summary for the Past Weeks

 TemperatureHumidityPressure
High94 °F (Jul 16, 3:53 pm)97% (Jul 8, 2:01 am)30.16 "Hg (Jul 8, 2:01 am)
Low73 °F (Jul 12, 8:53 pm)44% (Jul 17, 2:53 pm)29.88 "Hg (Jul 8, 6:53 pm)
Average82 °F77%30.04 "Hg
* Reported Jul 7 6:53 am — Jul 22 6:53 am, Deltona. Weather by CustomWeather, © 2019

Note: Actual official high and low records may vary slightly from our data, if they occured in-between our weather recording intervals... More about our weather records

Advertising

Deltona Weather History for the Previous 24 Hours

Scroll right to see more
 ConditionsComfort  
Time TempWeatherWind HumidityBarometerVisibility
6:53 am
Mon, Jul 22
74 °FSunny.No wind91%30.03 "Hg10 mi
5:53 am74 °FClear.No wind88%30.01 "Hg10 mi
4:53 am74 °FClear.3 mph88%30.02 "Hg10 mi
3:53 am74 °FClear.No wind88%30.02 "Hg10 mi
2:53 am74 °FClear.No wind91%30.02 "Hg10 mi
1:53 am74 °FClear.5 mph91%30.05 "Hg10 mi
12:53 am74 °FClear.No wind88%30.06 "Hg10 mi
11:53 pm
Sun, Jul 21
74 °FClear.5 mph91%30.07 "Hg10 mi
10:53 pm75 °FClear.5 mph88%30.06 "Hg10 mi
9:53 pm76 °FClear.3 mph85%30.05 "Hg10 mi
8:53 pm75 °FPassing clouds.3 mph85%30.07 "Hg10 mi
7:53 pm75 °FScattered clouds.12 mph85%30.07 "Hg10 mi
6:53 pm76 °FScattered clouds.3 mph85%30.06 "Hg10 mi
5:53 pm76 °FBroken clouds.5 mph88%30.04 "Hg10 mi
5:31 pm76 °FScattered clouds.8 mph91%30.04 "Hg10 mi
5:14 pm77 °FThundershowers. Scattered clouds.12 mph88%30.05 "Hg10 mi
4:53 pm78 °FBroken clouds.7 mph82%30.05 "Hg10 mi
4:34 pm79 °FThundershowers. Mostly cloudy.9 mph84%30.04 "Hg10 mi
4:16 pm80 °FThunderstorms. Mostly cloudy.9 mph81%30.06 "Hg10 mi
3:53 pm81 °FThundershowers. Scattered clouds.3 mph77%30.06 "Hg10 mi
3:33 pm81 °FThunderstorms. Scattered clouds.6 mph77%30.04 "Hg10 mi
2:53 pm80 °FThundershowers. Broken clouds.7 mph81%30.06 "Hg10 mi
2:27 pm88 °FThunderstorms. Partly sunny.17 mph59%30.06 "Hg10 mi
1:53 pm91 °FThundershowers. Sunny.5 mph52%30.05 "Hg10 mi
1:37 pm92 °FThundershowers. Passing clouds.7 mph51%30.06 "Hg10 mi
12:53 pm91 °FSunny.5 mph52%30.07 "Hg10 mi
11:53 am88 °FSunny.3 mph59%30.07 "Hg10 mi
10:53 am87 °FSunny.6 mph63%30.07 "Hg10 mi
9:53 am85 °FPassing clouds.5 mph70%30.07 "Hg10 mi
8:53 am82 °FSunny.3 mph82%30.09 "Hg10 mi
Weather by CustomWeather, © 2019

See weather overview